Qianfan Jigui 18-14

operational
NORAD ID: 66046 Int'l Des: 2025-233 Owner: YUANX Country: CN Constellation: qianfan
NOTLE

About Qianfan Jigui 18-14

Description loading...

Live Position

Loading 3D Globe...

Upcoming Passes

Altitude History

Altitude vs Time

uPlot chart will show altitude changes over time

Two-Line Element Set

1 66046U 25233P 25318.54683794 .00001243 00000-0 54229-3 0 9997
2 66046 88.9960 65.2770 0016527 126.2648 234.0074 14.23254188 4025
Epoch: Nov 14, 2025 • Age: 14 hours

Current Status

Altitude 819.0 km
Velocity 7.45 km/s
Sub-Earth Point 35.67°N, 30.36°W
Launch Date Oct 17, 2025
Age 29 days
Type internet

Technical Details

Classification Payload
Mass 267.00 kg
Dry Mass 267.00 kg
Total Mass 267.00 kg
Length 0.30 m
Diameter 3.00 m
Span 10.00 m
Shape Box+pan
Manufacturer SECM
Bus Type Qianfan
Phase Status In Orbit
Owner/State YUANX/CN

Large Constellations

Loading constellations...